This demonstration page uses our WeatherBlox Daily Observations layout. Learn more.

41.55636, -103.73856

Hourly Observations for December 5, 2015

Temp ( °F °C ) Dew Point ( °F °C ) Humidity (%) Winds ( mph kmh ) Pressure ( in mb ) Visibility ( mi km ) Precip ( " mm )
12:53 am 00:53 Clear 31 -0.6 25 -3.9 79 79 N 7 11 30.08 1019 10 16.0934 0 0
1:53 am 01:53 Clear 32 0 26 -3.3 79 79 Calm 30.08 1019 10 16.0934 0 0
2:53 am 02:53 Mostly Clear 30 -1.1 26 -3.3 85 85 NW 5 7 30.1 1019 10 16.0934 0 0
3:53 am 03:53 Mostly Clear 34 1.1 25 -3.9 70 70 NNW 8 13 30.12 1020 10 16.0934 0 0
4:53 am 04:53 Mostly Cloudy 36 2.2 24 -4.4 62 62 WNW 6 9 30.15 1021 10 16.0934 0 0
5:53 am 05:53 Cloudy 37 2.8 23 -5 57 57 WNW 15 24 30.16 1021 10 16.0934 0 0
6:53 am 06:53 Cloudy 36 2.2 24 -4.4 62 62 NW 10 17 30.2 1023 10 16.0934 0 0
7:53 am 07:53 Cloudy 37 2.8 24 -4.4 59 59 NW 8 13 30.23 1024 10 16.0934 0 0
8:53 am 08:53 Mostly Sunny 38 3.3 25 -3.9 60 60 NW 7 11 30.26 1025 10 16.0934 0 0
9:53 am 09:53 Sunny 42 5.6 26 -3.3 53 53 WNW 7 11 30.27 1025 10 16.0934 0 0
10:53 am 10:53 Sunny 43 6.1 24 -4.4 47 47 WNW 12 19 30.29 1026 10 16.0934 0 0
11:53 am 11:53 Sunny 48 8.9 19 -7.2 32 32 NW 14 22 30.26 1025 10 16.0934 0 0
12:53 pm 12:53 Sunny 50 10 20 -6.7 30 30 WNW 15 24 30.25 1024 10 16.0934 0 0
1:53 pm 13:53 Sunny 51 10.6 22 -5.6 32 32 NNE 17 28 30.26 1025 10 16.0934 0 0
2:53 pm 14:53 Sunny 51 10.6 21 -6.1 31 31 N 9 15 30.31 1026 10 16.0934 0 0
3:53 pm 15:53 Sunny 46 7.8 22 -5.6 38 38 N 10 17 30.35 1028 10 16.0934 0 0
4:53 pm 16:53 Clear 39 3.9 22 -5.6 50 50 N 5 7 30.4 1029 10 16.0934 0 0
5:53 pm 17:53 Partly Cloudy 34 1.1 21 -6.1 59 59 WNW 3 6 30.43 1031 10 16.0934 0 0
6:53 pm 18:53 Mostly Clear 32 0 21 -6.1 64 64 NW 6 9 30.47 1032 10 16.0934 0 0
7:53 pm 19:53 Clear 33 0.6 22 -5.6 64 64 WNW 7 11 30.48 1032 10 16.0934 0 0
8:53 pm 20:53 Clear 28 -2.2 20 -6.7 72 72 NW 7 11 30.51 1033 10 16.0934 0 0
9:53 pm 21:53 Clear 24 -4.4 19 -7.2 81 81 NNW 8 13 30.52 1033 10 16.0934 0 0
10:53 pm 22:53 Clear 25 -3.9 18 -7.8 75 75 NNW 7 11 30.51 1033 10 16.0934 0 0
11:53 pm 23:53 Clear 25 -3.9 18 -7.8 75 75 NNW 7 11 30.49 1032 10 16.0934 0 0

Powered by AerisWeather